[[{"header":{"parameterUnit":"m.s-1","parameterCategory":1,"la1":30.2991,"la2":30.254,"lo1":-89.0895,"lo2":-89.0444,"dy":0.0017,"dx":0.0017,"nx":28,"ny":28,"refTime":"2025-08-02T09:00:00:Z","depth":0,"parameterNumber":2,"parameterNumberName":"U-component_of_WINDS"},"data":[0,0,0,0,0,0,0,0,0,0,0,0,0,0,0,0,0,0,0,0,0,0,0,0,0,0,0,0,0,0,0,0,0,0,0,0,0,0,0,0,0,0,0,0,0,0,0,0,0,0,0,0,0,0,0,0,0,0,1.4831,1.4831,0,1.4859,1.4859,1.486,1.4853,1.4852,1.4851,1.4851,1.4879,1.4881,1.4882,0,0,0,0,0,0,0,0,0,0,0,0,0,1.4771,1.4772,1.483,1.4831,1.4831,1.4859,1.4859,1.486,1.4853,1.4852,1.4851,1.4851,1.4879,1.4881,1.4882,0,0,0,0,0,0,0,0,0,0,0,0,0,1.4798,1.4772,1.483,1.4831,1.4831,1.4859,1.4859,1.486,1.4853,1.4852,1.4851,1.485,1.4879,1.488,1.4882,1.4911,0,0,1.4888,1.4889,0,0,0,0,0,0,0,0,1.4796,1.48,1.4831,1.4831,1.4831,1.4851,1.4849,1.4877,1.4853,1.4845,1.4851,1.485,1.4871,1.4873,1.488,1.4912,1.4913,1.4888,1.4889,1.489,1.4891,0,0,0,0,0,0,0,1.4794,1.4799,1.4842,1.4831,1.4832,1.483,1.4833,1.4854,1.4862,1.4845,1.4845,1.4848,1.4871,1.4879,1.4881,1.4914,1.4888,1.489,1.4891,1.4892,1.4972,1.4973,0,0,0,0,0,0,1.4792,1.4797,1.4841,1.4843,1.4811,1.4832,1.4835,1.4846,1.4862,1.4863,1.4849,1.4848,1.4876,1.4879,1.4882,1.4917,1.489,1.4892,1.4893,1.4971,1.4973,1.4974,0,0,0,0,0,0,1.4791,1.4796,1.484,1.482,1.4825,1.4834,1.4846,1.4847,1.4855,1.4865,1.4866,1.4855,1.4875,1.4879,1.4904,1.4918,1.4893,1.4895,1.497,1.4972,1.4973,1.4988,0,0,0,0,0,0,1.4789,1.4796,1.4806,1.482,1.4826,1.4861,1.4847,1.4848,1.4858,1.4857,1.4871,1.4873,1.4875,1.4901,1.4906,1.492,1.4896,1.4969,1.4971,1.4973,1.4986,1.499,1.4993,0,0,0,0,0,1.4787,1.4808,1.4807,1.4812,1.484,1.4862,1.4865,1.4868,1.4859,1.487,1.4877,1.4872,1.4916,1.4904,1.4909,1.4924,1.4968,1.497,1.4972,1.4985,1.4989,1.4993,0,0,0,0,0,0,1.4795,1.481,1.4808,1.4835,1.4847,1.4861,1.4874,1.4872,1.4887,1.4885,1.4887,1.4891,1.4916,1.4923,1.4909,1.4954,1.4941,1.4944,1.4948,1.4953,1.4956,1.4954,1.4898,0,0,0,0,0,1.48,1.4817,1.4829,1.4852,1.4858,1.4865,1.4875,1.4876,1.4889,1.4894,1.4902,1.4915,1.4932,1.4943,1.4958,1.4988,1.4991,1.5001,1.5004,1.5007,1.5009,1.5027,1.5032,1.4981,1.4981,1.4981,0,0,1.481,1.4821,1.4831,1.4854,1.4863,1.4881,1.487,1.4888,1.4902,1.4897,1.4921,1.4928,1.4942,1.497,1.4982,1.4976,1.5025,1.501,1.5012,1.5013,1.503,1.5034,1.5039,1.4982,1.4982,1.4982,0,0,1.4838,1.4847,1.4868,1.4878,1.4894,1.4899,1.4904,1.4918,1.4923,1.4947,1.4944,1.496,1.4989,1.5,1.5009,1.5044,1.504,1.5049,1.5066,1.5083,1.5087,1.509,1.5103,1.5108,1.5052,1.5052,1.5052,0,1.4849,1.4875,1.4878,1.4898,1.4909,1.4906,1.4927,1.4937,1.4957,1.4964,1.4957,1.4995,1.5004,1.5035,1.5043,1.5051,1.5057,1.5047,1.5086,1.509,1.5093,1.5106,1.511,1.5053,1.5053,1.5053,1.5052,0,1.4888,1.4907,1.4922,1.4942,1.4954,1.4974,1.4981,1.4993,1.4994,1.5,1.5026,1.5038,1.5057,1.5064,1.5064,1.5096,1.5091,1.5085,1.5072,1.5099,1.5111,1.5115,1.5054,1.5054,1.5053,1.5053,0,0,1.492,1.4943,1.4949,1.4959,1.4976,1.4991,1.5012,1.5031,1.5042,1.5056,1.5074,1.51,1.5095,1.5105,1.5107,1.5122,1.515,1.5114,1.5115,1.5121,1.5187,1.5191,1.5197,1.5149,1.515,1.515,1.5186,0,1.495,1.4987,1.4992,1.5024,1.5042,1.5041,1.506,1.5073,1.508,1.5097,1.5104,1.5123,1.5114,1.5121,1.5135,1.5144,1.5164,1.5141,1.5166,1.5167,1.5162,1.5203,1.5207,1.524,1.519,1.5191,1.5192,0,1.4989,1.5006,1.5041,1.5058,1.5065,1.5082,1.5101,1.5117,1.5132,1.5136,1.5149,1.515,1.5172,1.5159,1.5191,1.5176,1.5186,1.5192,1.5194,1.5196,1.518,1.5206,1.525,1.5255,1.5199,1.5198,1.5198,0,1.501,1.5041,1.5066,1.5074,1.5095,1.5107,1.5116,1.513,1.5142,1.5159,1.5167,1.5186,1.5197,1.5212,1.5218,1.5208,1.525,1.5237,1.5254,1.5254,1.5263,1.5262,1.5309,1.5269,1.5269,1.5269,1.5269,0,1.5042,1.5064,1.5076,1.5091,1.5116,1.5122,1.5146,1.5155,1.5169,1.5186,1.5187,1.5203,1.521,1.5229,1.5234,1.526,1.5264,1.5269,1.527,1.5269,1.5268,1.5275,1.5273,1.5271,1.527,1.527,1.527,0,1.5069,1.5078,1.5106,1.5123,1.5128,1.5146,1.5161,1.5177,1.5184,1.5207,1.5213,1.5224,1.5246,1.5254,1.528,1.5283,1.5314,1.5313,1.5309,1.5309,1.5326,1.5325,1.538,1.5388,1.5342,1.5343,1.5343,0,1.5089,1.5106,1.5126,1.5139,1.5148,1.5168,1.518,1.5187,1.5201,1.5221,1.5234,1.5256,1.5274,1.5308,1.5319,1.534,1.534,1.5358,1.5342,1.5341,1.534,1.5339,1.5342,1.536,1.5361,1.5361,1.5361,0,1.5125,1.5129,1.5147,1.5167,1.5183,1.5199,1.5215,1.5225,1.5235,1.525,1.5272,1.5286,1.5314,1.5335,1.5357,1.5366,1.5366,1.5366,1.5371,1.537,1.5367,1.537,1.5316,1.5365,1.5364,1.5364,1.5364,1.5364,1.5149,1.5165,1.5182,1.5203,1.5216,1.5231,1.5247,1.5257,1.5276,1.5299,1.5303,1.5327,1.5344,1.5373,1.5384,1.5403,1.5399,1.5406,1.5408,1.541,1.5411,1.5365,1.5407,1.5407,1.5407,1.5407,1.5407,0,1.5185,1.5196,1.5215,1.5238,1.5255,1.5254,1.5272,1.5286,1.5308,1.5324,1.5342,1.5369,1.5391,1.5404,1.5426,1.544,1.544,1.5445,1.5444,1.5447,1.5414,1.5407,1.5445,1.5445,1.5445,1.5445,1.5445,1.5445,1.5205,1.5232,1.5238,1.5272,1.5283,1.5308,1.5318,1.5333,1.5346,1.5376,1.5394,1.5403,1.5419,1.5443,1.5463,1.5467,1.5475,1.5481,1.5484,1.5453,1.5449,1.5445,1.5439,1.5482,1.5482,1.5515,1.5515,1.5516]},{"header":{"parameterUnit":"m.s-1","parameterCategory":1,"la1":30.2991,"la2":30.254,"lo1":-89.0895,"lo2":-89.0444,"dy":0.0017,"dx":0.0017,"nx":28,"ny":28,"refTime":"2025-08-02T09:00:00:Z","depth":0,"parameterNumber":3,"parameterNumberName":"V-component_of_WINDS"},"data":[0,0,0,0,0,0,0,0,0,0,0,0,0,0,0,0,0,0,0,0,0,0,0,0,0,0,0,0,0,0,0,0,0,0,0,0,0,0,0,0,0,0,0,0,0,0,0,0,0,0,0,0,0,0,0,0,0,0,-2.6408,-2.6409,0,-2.6446,-2.6446,-2.6447,-2.6442,-2.6441,-2.6441,-2.644,-2.6476,-2.6478,-2.6479,0,0,0,0,0,0,0,0,0,0,0,0,0,-2.6333,-2.6335,-2.6408,-2.6409,-2.6409,-2.6446,-2.6446,-2.6447,-2.6442,-2.6441,-2.644,-2.644,-2.6476,-2.6478,-2.6479,0,0,0,0,0,0,0,0,0,0,0,0,0,-2.6368,-2.6335,-2.6408,-2.6411,-2.6412,-2.6446,-2.6446,-2.6447,-2.6442,-2.6441,-2.644,-2.6439,-2.6475,-2.6477,-2.648,-2.6512,0,0,-2.6487,-2.6488,0,0,0,0,0,0,0,0,-2.6366,-2.637,-2.641,-2.6411,-2.6412,-2.6438,-2.6433,-2.6469,-2.6442,-2.6431,-2.644,-2.6439,-2.6464,-2.6467,-2.6476,-2.6514,-2.6515,-2.6487,-2.6488,-2.6489,-2.649,0,0,0,0,0,0,0,-2.6363,-2.6369,-2.6423,-2.6411,-2.6412,-2.6411,-2.6415,-2.644,-2.6452,-2.6432,-2.6431,-2.6436,-2.6464,-2.6474,-2.6477,-2.6516,-2.6487,-2.6489,-2.649,-2.6491,-2.6584,-2.6585,0,0,0,0,0,0,-2.636,-2.6367,-2.6422,-2.6424,-2.6386,-2.6413,-2.6417,-2.6431,-2.6452,-2.6454,-2.6437,-2.6436,-2.6471,-2.6474,-2.6478,-2.6519,-2.6489,-2.6491,-2.6493,-2.6583,-2.6585,-2.6586,0,0,0,0,0,0,-2.6359,-2.6365,-2.642,-2.6396,-2.6403,-2.6415,-2.643,-2.6432,-2.6441,-2.6456,-2.6458,-2.6444,-2.647,-2.6475,-2.6504,-2.652,-2.6492,-2.6494,-2.6582,-2.6584,-2.6585,-2.6599,0,0,0,0,0,0,-2.6357,-2.6365,-2.6377,-2.6396,-2.6404,-2.6445,-2.6431,-2.6433,-2.6446,-2.6445,-2.6463,-2.6465,-2.647,-2.6501,-2.6507,-2.6523,-2.6496,-2.6581,-2.6583,-2.6585,-2.6597,-2.6601,-2.6604,0,0,0,0,0,-2.6354,-2.6378,-2.6377,-2.6384,-2.6419,-2.6446,-2.6451,-2.6456,-2.6447,-2.6459,-2.6469,-2.6465,-2.6518,-2.6504,-2.651,-2.6527,-2.658,-2.6582,-2.6585,-2.6596,-2.66,-2.6604,0,0,0,0,0,0,-2.6358,-2.638,-2.638,-2.6411,-2.6427,-2.6446,-2.6461,-2.646,-2.6479,-2.6477,-2.6482,-2.6486,-2.6516,-2.6525,-2.6509,-2.6561,-2.6547,-2.6551,-2.6554,-2.6558,-2.6562,-2.6558,-2.6498,0,0,0,0,0,-2.6363,-2.6384,-2.6402,-2.6427,-2.6436,-2.6447,-2.6459,-2.6462,-2.6479,-2.6485,-2.6497,-2.6513,-2.6534,-2.6547,-2.6566,-2.6599,-2.6604,-2.6614,-2.6618,-2.6621,-2.6623,-2.6644,-2.6649,-2.6594,-2.6594,-2.6594,0,0,-2.6372,-2.6387,-2.6399,-2.6429,-2.6442,-2.6463,-2.6453,-2.6475,-2.6491,-2.6489,-2.6517,-2.6527,-2.6545,-2.6577,-2.6592,-2.6585,-2.664,-2.6624,-2.6626,-2.6627,-2.6647,-2.6652,-2.6656,-2.6596,-2.6595,-2.6595,0,0,-2.6401,-2.6414,-2.6438,-2.6452,-2.6472,-2.6481,-2.6487,-2.6506,-2.6513,-2.6542,-2.6541,-2.6561,-2.6596,-2.661,-2.6621,-2.666,-2.6657,-2.6666,-2.6683,-2.6703,-2.6707,-2.6711,-2.6725,-2.673,-2.6669,-2.6669,-2.6669,0,-2.6409,-2.6442,-2.6449,-2.6473,-2.6487,-2.6488,-2.6513,-2.6526,-2.6551,-2.6561,-2.6554,-2.66,-2.6612,-2.6648,-2.6658,-2.6667,-2.6674,-2.6663,-2.6706,-2.671,-2.6714,-2.6727,-2.6733,-2.667,-2.667,-2.667,-2.667,0,-2.6452,-2.6475,-2.6492,-2.6519,-2.6535,-2.6558,-2.657,-2.6586,-2.6589,-2.6598,-2.6629,-2.6645,-2.6668,-2.6678,-2.668,-2.6715,-2.6711,-2.6705,-2.6691,-2.672,-2.6733,-2.6738,-2.6671,-2.6671,-2.6671,-2.6671,0,0,-2.648,-2.6514,-2.652,-2.6533,-2.6558,-2.6576,-2.6602,-2.6626,-2.664,-2.6658,-2.668,-2.6712,-2.6708,-2.6721,-2.6725,-2.6743,-2.6773,-2.6735,-2.6736,-2.6741,-2.6814,-2.6818,-2.6823,-2.6773,-2.6774,-2.6775,-2.6813,0,-2.6511,-2.6556,-2.6565,-2.6604,-2.6626,-2.663,-2.6652,-2.667,-2.6681,-2.6701,-2.6713,-2.6735,-2.6728,-2.6736,-2.6754,-2.6766,-2.6788,-2.6763,-2.6792,-2.6793,-2.6786,-2.683,-2.6833,-2.6868,-2.6818,-2.6819,-2.6819,0,-2.6551,-2.6573,-2.6615,-2.664,-2.6649,-2.6669,-2.6694,-2.6714,-2.6735,-2.6742,-2.6759,-2.6763,-2.679,-2.6777,-2.6815,-2.6798,-2.6811,-2.6819,-2.6821,-2.6823,-2.6807,-2.6832,-2.6879,-2.6884,-2.6827,-2.6827,-2.6826,0,-2.6568,-2.6608,-2.6638,-2.665,-2.6679,-2.6694,-2.6707,-2.6727,-2.6743,-2.6765,-2.6775,-2.68,-2.6813,-2.6833,-2.6843,-2.6832,-2.6881,-2.6868,-2.6887,-2.6887,-2.6895,-2.6894,-2.6944,-2.6905,-2.6905,-2.6905,-2.6905,0,-2.66,-2.6625,-2.6647,-2.6665,-2.6695,-2.6707,-2.6735,-2.6748,-2.6768,-2.6789,-2.6794,-2.6814,-2.6828,-2.685,-2.6859,-2.689,-2.6896,-2.6902,-2.6903,-2.6901,-2.69,-2.6908,-2.6905,-2.6907,-2.6906,-2.6906,-2.6906,0,-2.6621,-2.6637,-2.6671,-2.6698,-2.6706,-2.6726,-2.6749,-2.6768,-2.678,-2.6808,-2.6815,-2.6834,-2.6861,-2.6874,-2.6907,-2.6913,-2.6948,-2.6949,-2.6941,-2.6942,-2.696,-2.6958,-2.7015,-2.7024,-2.698,-2.6981,-2.6981,0,-2.664,-2.666,-2.6691,-2.6706,-2.672,-2.6745,-2.6762,-2.6776,-2.6793,-2.6821,-2.6837,-2.6865,-2.6887,-2.6931,-2.6947,-2.6973,-2.6974,-2.6993,-2.6977,-2.6975,-2.6974,-2.6972,-2.6975,-2.6995,-2.6995,-2.6995,-2.6996,0,-2.6672,-2.668,-2.6704,-2.6732,-2.6752,-2.6775,-2.6796,-2.6809,-2.6827,-2.6846,-2.6875,-2.6893,-2.6928,-2.6956,-2.6984,-2.6998,-2.7,-2.7001,-2.7007,-2.7003,-2.6998,-2.7001,-2.6948,-2.6999,-2.6998,-2.6998,-2.6998,-2.6998,-2.6693,-2.6712,-2.6737,-2.6764,-2.6783,-2.6805,-2.6824,-2.6841,-2.6865,-2.6896,-2.6903,-2.6934,-2.6958,-2.6996,-2.7011,-2.7035,-2.7031,-2.7039,-2.7041,-2.7043,-2.7044,-2.6996,-2.7041,-2.7041,-2.704,-2.704,-2.704,0,-2.6725,-2.6742,-2.6768,-2.68,-2.6822,-2.6825,-2.685,-2.6868,-2.6896,-2.6919,-2.6942,-2.6977,-2.7005,-2.7025,-2.7054,-2.7069,-2.7071,-2.7076,-2.7075,-2.7078,-2.7046,-2.7038,-2.7075,-2.7075,-2.7075,-2.7075,-2.7075,-2.7075,-2.6744,-2.6776,-2.6788,-2.6831,-2.6848,-2.6879,-2.6894,-2.6914,-2.6933,-2.6971,-2.6995,-2.7009,-2.7032,-2.7063,-2.7089,-2.7094,-2.7104,-2.7109,-2.7115,-2.7084,-2.708,-2.7076,-2.7069,-2.7112,-2.7112,-2.7145,-2.7145,-2.7145]}]]